Temperature
16 16 16 16 16 16 16 16 16 16 16 16 16 16 16 16 16 16 16 16 16 16 16 16 15 15 15 15 16 16 16 15 15 15 15 15 15 15 15 15 15 15 15
16 16 16 16 16 16 16 16 16 16 16 16 16 16 16 16 15 15 15 15 15 15 15 15 15 15 15 15 15 15 15 15 15 15 15 15 15 15 15 15 15 15 15
16 16 16 16 16 16 16 16 16 16 16 16 15 15 15 15 15 15 15 15 15 15 15 15 15 15 15 15 15 15 15 15 15 15 15 15 15 15 15 15 15 15 15
16 16 16 16 16 16 15 15 15 15 15 15 15 15 15 15 15 15 15 15 15 15 15 15 15 15 15 15 15 15 15 15 15 15 15 15 15 15 15 15 15 15 15
16 16 16 16 15 15 15 15 15 15 15 15 15 15 15 15 15 15 15 15 15 15 15 15 15 15 15 15 14 15 15 15 15 15 15 15 15 15 15 15 14 14 14
16 16 16 15 15 15 15 15 15 15 15 15 15 15 15 15 15 15 15 15 15 15 15 14 14 14 14 14 14 14 14 14 14 14 14 14 14 14 14 14 14 14 14
16 16 15 15 15 15 15 15 15 15 15 15 15 15 15 15 15 15 15 15 15 15 14 14 14 14 14 14 14 14 14 14 14 14 14 14 14 14 14 14 14 14 14
15 15 15 15 15 15 15 15 15 15 14 15 15 15 15 15 15 15 15 15 14 14 14 14 14 14 14 14 14 14 14 14 14 14 14 14 14 13 13 13 13 13 14
15 15 15 15 15 15 15 14 14 14 14 14 15 15 14 14 14 14 14 14 14 14 14 14 14 14 14 14 14 14 14 14 13 14 13 13 13 13 13 13 13 13 13
15 15 15 15 15 15 15 14 14 14 14 14 14 14 15 15 14 14 14 14 14 14 14 14 14 14 14 14 13 13 13 13 13 13 13 13 13 13 13 13 13 13 13
15 15 15 15 15 14 14 14 14 14 14 14 14 14 14 14 14 14 14 14 14 14 14 14 14 13 13 13 13 13 13 13 13 13 13 13 13 13 13 12 12 12 13
15 15 15 15 15 14 14 14 14 14 14 14 14 14 14 14 14 14 14 14 14 14 14 13 13 13 13 13 13 13 13 13 13 13 13 13 13 12 12 12 12 12 12
15 15 15 15 15 14 14 14 14 14 14 14 14 14 14 14 14 14 14 14 13 13 13 13 13 13 13 13 13 13 13 13 13 13 13 13 13 12 12 12 12 12 12
15 15 15 15 14 14 14 14 14 14 14 14 14 14 14 14 14 14 14 13 13 13 13 13 13 13 13 13 13 13 13 13 13 12 13 12 12 12 12 12 12 12 12
15 15 15 15 14 14 14 14 14 14 13 13 13 13 13 13 13 13 13 13 13 13 13 13 13 13 13 13 12 12 12 12 12 12 12 12 12 12 12 12 12 12 12
15 15 15 15 14 14 14 14 14 14 14 13 13 13 13 13 13 13 13 13 13 13 13 13 13 13 13 12 12 12 12 12 12 12 12 12 12 12 12 12 12 12 11
15 14 14 14 14 14 14 14 13 13 13 13 13 13 13 13 13 13 13 13 13 13 13 13 12 12 12 12 12 12 12 12 12 12 12 12 12 12 11 11 11 11 11
14 14 14 14 14 14 14 13 13 13 13 13 13 13 13 13 13 13 13 13 12 12 12 12 12 12 12 12 12 12 12 11 11 11 11 11 11 11 11 11 11 11 11
14 14 14 14 14 13 13 13 13 13 13 13 13 13 13 13 13 13 12 12 12 12 12 12 12 12 12 11 11 11 11 11 11 11 11 11 11 11 11 11 11 11 11
14 13 13 13 13 13 13 13 13 13 13 13 13 13 13 13 13 12 12 12 12 12 12 12 12 11 11 11 11 11 11 11 11 11 11 11 11 11 11 11 11 11 11
13 13 13 13 13 13 13 12 12 12 12 12 12 12 12 12 12 12 12 12 12 12 12 11 11 11 11 11 11 11 11 11 11 11 11 11 11 11 11 11 11 10 10
13 13 12 12 12 12 12 12 12 12 12 12 12 12 12 12 12 12 12 12 12 12 11 11 11 11 11 11 11 11 11 10 10 10 10 10 10 10 11 10 10 10 10
12 12 12 12 12 12 12 12 11 11 11 11 11 11 11 11 12 12 12 12 12 11 11 11 11 11 11 11 11 10 11 10 10 10 10 10 10 10 10 10 10 10 10
12 12 12 11 11 11 11 11 11 11 11 11 11 11 11 11 11 11 11 11 11 11 11 11 11 11 11 11 10 10 10 10 10 10 10 10 10 10 10 10 10 10 10
11 11 11 11 11 11 11 11 11 11 11 11 11 11 10 11 11 11 11 11 11 11 11 11 11 11 11 10 10 10 10 10 9 10 10 9 9 9 9 9 10 9 9
11 11 11 10 10 10 10 10 10 10 10 10 10 10 10 10 10 10 10 10 10 10 10 10 10 10 10 10 10 10 10 9 9 9 9 9 9 9 9 9 9 9 9
Wind_Speed
2 3 3 4 3 3 3 2 3 4 5 5 6 7 6 7 9 10 10 13 13 12 12 12 11 11 11 11 11 10 10 10 10 10 10 10 10 9 9 8 8 8 8
3 3 3 3 3 3 3 3 3 3 3 4 4 5 5 6 7 8 10 11 12 12 12 12 11 11 11 11 10 10 10 10 9 9 9 10 10 10 9 8 8 7 7
4 4 3 3 3 4 4 4 4 3 3 4 4 3 4 5 4 6 8 9 9 10 11 11 11 10 10 10 10 10 10 10 9 9 9 9 9 9 8 8 8 7 7
6 4 3 2 3 4 3 3 3 3 3 3 3 3 3 3 4 5 6 7 8 9 9 10 10 9 9 9 9 9 9 9 9 8 8 8 7 7 7 8 7 8 7
6 5 2 2 4 3 3 3 4 3 3 3 3 3 3 3 2 4 4 6 8 9 9 9 9 9 9 9 9 8 8 8 8 8 7 7 7 6 6 6 7 7 7
5 4 2 3 3 3 3 3 3 3 2 2 3 3 2 2 2 3 3 5 5 8 8 8 8 7 8 7 7 7 7 7 7 7 7 6 6 6 6 6 6 6 6
3 3 2 3 3 3 2 2 3 2 1 2 2 2 2 2 3 3 3 3 3 5 6 7 7 7 7 6 7 6 6 6 6 6 7 6 5 5 5 6 5 5 5
2 2 2 2 3 2 1 2 3 2 1 1 1 1 1 2 2 2 2 2 2 3 4 5 6 6 7 7 6 6 7 7 6 6 6 6 5 5 5 6 6 5 5
2 1 2 2 3 3 2 2 2 2 1 1 1 1 1 1 0 1 1 3 2 2 2 2 4 6 7 7 6 6 7 7 6 6 6 5 4 5 5 5 5 5 5
2 2 1 1 2 3 3 3 3 2 2 1 1 1 1 2 2 0 2 1 1 2 1 2 3 5 7 7 7 6 6 6 6 5 5 5 5 4 4 5 5 5 5
2 3 2 2 2 2 3 3 2 2 2 2 1 0 1 1 1 1 1 1 1 0 2 2 2 4 6 7 7 6 5 5 5 5 5 4 4 4 4 4 4 4 4
3 3 3 2 2 2 3 3 3 3 2 1 1 1 1 1 1 1 1 1 1 1 1 1 2 3 5 6 5 6 6 5 4 4 5 5 5 4 4 4 3 4 4
2 3 3 2 2 2 2 2 3 3 3 2 2 1 1 1 1 1 1 1 0 1 0 0 2 3 5 6 7 6 5 4 3 3 3 3 4 4 4 3 3 3 3
2 3 3 3 3 3 2 2 2 3 2 2 2 2 1 2 1 1 2 2 0 1 1 1 1 2 4 6 7 7 5 4 3 2 2 2 2 3 3 3 3 2 2
2 2 3 3 3 3 3 2 2 3 3 3 3 2 2 2 1 1 1 2 2 1 2 1 0 1 4 6 7 7 6 5 5 3 2 2 1 1 2 2 2 2 2
2 2 1 2 2 2 3 2 3 3 3 3 2 3 2 2 2 1 1 1 1 2 2 1 1 1 2 3 6 6 6 6 6 4 3 3 2 1 0 1 1 1 1
3 2 2 2 1 1 2 2 2 3 3 3 3 3 3 3 2 2 1 1 1 1 2 1 1 1 1 1 3 4 5 5 6 6 5 4 3 2 2 1 1 1 0
2 2 2 2 2 1 1 2 2 2 3 3 4 4 4 3 3 2 2 2 2 2 3 2 2 2 3 3 3 3 3 4 5 5 6 6 5 4 3 3 3 2 2
3 3 2 2 2 2 2 1 2 2 2 2 3 3 3 3 3 2 2 2 2 2 2 3 3 2 2 2 2 2 3 3 4 5 6 6 6 6 5 5 4 4 3
3 3 3 3 2 2 2 2 1 2 2 2 3 3 3 3 4 3 3 3 2 2 1 1 2 2 2 2 2 2 2 2 2 3 5 6 6 7 7 6 6 5 5
1 2 3 2 2 2 1 1 1 1 1 2 2 3 3 2 3 3 3 3 3 2 2 2 2 2 2 2 3 3 2 2 2 2 2 3 5 4 6 7 7 8 7
1 1 2 3 2 1 1 1 0 2 2 2 2 3 3 2 2 3 4 4 5 4 4 3 3 3 3 3 2 2 2 2 2 2 3 3 3 3 5 6 8 9 9
1 1 2 2 2 2 2 1 1 2 2 3 2 2 2 2 1 1 2 3 3 4 6 5 4 5 4 4 4 3 3 3 3 3 2 3 2 3 4 7 9 10 10
2 1 1 2 2 2 2 1 2 2 3 3 3 2 2 2 1 1 1 2 3 3 4 4 4 5 4 4 5 5 5 3 2 1 3 2 2 2 2 5 9 11 11
1 1 2 2 1 1 2 2 2 2 3 3 2 1 1 1 2 1 0 2 2 4 4 5 5 4 5 4 3 1 2 2 2 3 2 2 2 2 1 2 6 10 11
1 1 1 1 2 1 1 2 2 1 2 2 2 1 2 2 2 1 1 2 3 4 3 3 3 3 3 4 4 4 4 3 2 2 2 2 2 2 1 2 2 5 6
Wind_Direction
96 99 98 96 88 80 73 55 60 67 67 60 65 74 78 85 91 94 92 88 87 86 84 85 84 80 76 74 72 72 72 70 67 66 67 65 62 63 63 61 60 61 62
85 82 93 84 77 76 75 77 77 86 84 79 66 62 76 82 87 99 107 96 89 88 87 86 84 81 77 74 72 69 68 67 68 69 69 65 61 61 60 59 58 55 54
83 84 87 88 82 74 70 66 65 80 94 95 89 76 73 81 86 93 107 112 103 94 92 88 86 81 78 75 72 70 68 66 66 67 67 64 62 58 56 59 59 55 54
84 76 78 83 85 77 72 74 71 70 72 74 70 66 71 74 82 99 107 113 115 107 101 95 89 83 78 73 71 70 68 66 65 65 65 63 62 59 56 58 57 54 52
90 91 78 71 86 80 71 73 70 70 71 72 79 78 68 58 46 80 91 102 113 117 117 112 100 89 83 76 71 70 68 65 61 59 61 59 58 57 56 55 55 53 50
90 96 102 87 79 84 73 76 81 72 73 82 76 73 78 79 59 57 60 78 95 112 120 124 121 104 90 79 74 72 68 66 61 54 52 53 52 54 53 51 54 53 52
99 105 88 93 83 88 93 88 94 85 64 75 78 56 38 65 88 86 75 69 79 99 110 114 124 125 108 85 70 71 68 61 57 51 49 46 44 47 49 48 53 55 50
95 116 139 129 120 112 102 101 102 91 47 59 95 87 57 18 16 83 107 103 84 81 88 102 107 109 113 109 81 72 68 63 59 52 49 46 45 44 50 51 52 54 56
139 128 106 129 149 150 145 144 124 128 151 313 49 98 114 141 285 9 74 95 91 74 71 95 102 104 103 104 94 80 72 65 55 49 47 46 54 53 52 49 47 50 55
148 145 141 175 175 159 160 177 155 155 156 222 312 17 139 134 135 126 330 57 112 123 125 85 91 95 100 100 99 95 87 73 60 50 48 45 48 51 49 45 44 46 53
169 174 176 197 196 176 177 176 157 163 178 191 200 267 19 17 203 153 217 271 324 253 128 121 109 111 109 112 111 104 100 84 67 53 47 42 39 41 46 42 38 40 47
190 193 190 188 191 190 190 176 171 178 196 208 215 194 170 207 229 162 189 224 231 254 131 116 114 125 127 119 123 123 120 105 81 63 52 43 34 29 34 32 32 39 45
192 194 188 188 198 201 191 164 175 184 198 205 213 208 207 246 228 187 149 198 284 275 193 160 158 146 143 134 138 137 135 132 117 87 65 49 37 27 23 20 19 27 40
191 190 189 191 196 189 190 176 179 197 196 196 222 210 207 255 257 206 165 146 180 287 262 244 193 158 146 152 161 156 157 161 156 141 111 76 49 36 25 16 12 16 33
184 179 185 198 189 182 184 174 186 206 205 203 209 212 206 223 239 238 172 155 171 221 249 233 213 213 157 160 169 170 168 167 167 176 177 159 107 62 33 24 28 31 39
154 166 191 191 186 177 175 191 196 211 208 207 201 213 217 206 209 212 197 215 194 193 231 232 225 200 172 174 176 175 175 173 185 192 194 190 187 169 104 49 68 53 49
168 179 191 183 179 176 167 171 210 221 212 210 201 213 228 206 196 205 196 205 233 175 211 271 246 184 179 183 151 178 179 166 186 196 199 198 199 202 201 199 181 178 162
170 176 180 174 175 170 160 170 207 229 230 226 216 209 220 214 203 206 199 208 214 211 193 217 233 209 205 190 171 185 185 180 182 201 205 205 208 207 206 209 213 217 225
176 175 175 178 176 171 177 189 199 227 247 243 236 225 224 209 205 206 203 217 218 224 196 198 220 215 210 189 178 201 191 178 196 197 207 211 213 213 213 216 220 220 221
176 179 181 179 175 172 187 194 199 215 240 256 257 244 234 217 210 204 208 214 204 212 221 204 211 212 204 197 175 197 215 214 214 195 198 207 215 220 221 225 230 229 224
187 183 173 168 171 174 194 153 209 228 257 272 272 266 248 226 216 208 207 206 198 201 209 207 218 223 217 190 207 206 204 216 224 201 194 200 196 200 215 227 231 230 225
182 191 177 171 169 175 128 104 267 245 242 254 259 271 264 252 233 217 209 200 196 202 205 207 219 218 226 213 205 204 196 200 251 228 192 222 186 206 201 206 216 215 215
169 190 194 178 171 176 162 189 268 265 262 258 255 257 273 272 263 227 228 214 220 228 213 203 212 225 221 214 205 213 210 203 222 218 176 237 225 220 206 208 210 206 207
173 194 210 205 183 187 176 196 254 259 270 263 257 250 251 263 288 271 244 229 234 242 232 218 219 228 221 214 206 208 207 205 222 216 162 219 236 235 226 201 209 206 207
194 193 208 214 192 205 180 186 197 253 271 272 263 274 288 267 299 6 274 244 249 257 246 235 223 225 225 223 196 171 187 179 239 251 205 191 220 230 238 219 207 206 205
216 208 214 208 194 199 176 164 187 242 271 288 296 292 310 313 326 323 266 244 255 260 252 251 248 244 230 226 216 196 189 190 206 236 225 184 203 178 251 257 198 195 202
Height
1534 1534 1534 1534 1534 1535 1535 1535 1535 1536 1536 1537 1538 1539 1540 1540 1541 1541 1541 1541 1541 1541 1541 1541 1540 1540 1540 1540 1540 1540 1540 1540 1540 1540 1540 1540 1540 1540 1540 1540 1540 1540 1539
1535 1535 1535 1535 1535 1536 1536 1536 1536 1537 1537 1538 1539 1540 1541 1541 1542 1542 1542 1542 1542 1542 1542 1542 1542 1542 1541 1541 1541 1541 1540 1540 1540 1540 1540 1540 1540 1540 1540 1540 1540 1539 1539
1535 1535 1535 1536 1536 1536 1536 1537 1537 1538 1538 1539 1540 1541 1541 1542 1542 1543 1543 1543 1543 1543 1543 1543 1543 1543 1542 1542 1541 1541 1541 1541 1540 1540 1540 1540 1540 1540 1540 1540 1539 1539 1539
1535 1536 1536 1536 1537 1537 1537 1537 1538 1538 1539 1540 1541 1542 1542 1543 1543 1544 1544 1544 1544 1544 1544 1544 1543 1543 1543 1542 1542 1542 1541 1541 1541 1541 1540 1540 1540 1540 1540 1540 1539 1539 1539
1536 1536 1536 1537 1537 1537 1537 1538 1539 1539 1540 1540 1541 1542 1543 1543 1544 1545 1545 1545 1545 1544 1544 1544 1544 1544 1543 1543 1542 1542 1541 1541 1541 1541 1541 1540 1540 1540 1540 1540 1539 1539 1538
1536 1536 1536 1537 1537 1537 1538 1538 1539 1540 1541 1541 1542 1542 1543 1544 1544 1545 1545 1545 1545 1545 1545 1545 1544 1544 1544 1543 1543 1542 1542 1541 1541 1541 1541 1540 1540 1540 1540 1540 1539 1539 1538
1536 1536 1536 1537 1537 1537 1538 1539 1539 1540 1541 1541 1542 1542 1543 1544 1544 1545 1545 1545 1546 1546 1545 1545 1544 1544 1544 1543 1543 1542 1542 1541 1541 1541 1540 1540 1540 1540 1539 1539 1539 1539 1538
1535 1536 1536 1536 1537 1537 1538 1539 1539 1540 1541 1542 1542 1542 1543 1545 1545 1545 1545 1545 1546 1546 1545 1545 1545 1544 1544 1543 1543 1543 1542 1541 1541 1540 1540 1539 1539 1539 1539 1539 1538 1538 1538
1534 1535 1535 1536 1536 1537 1537 1538 1539 1539 1540 1542 1542 1543 1543 1543 1544 1546 1545 1545 1545 1545 1545 1545 1545 1544 1544 1543 1543 1543 1542 1541 1541 1540 1540 1539 1539 1539 1538 1538 1538 1538 1538
1533 1534 1534 1535 1535 1536 1537 1537 1538 1539 1540 1541 1542 1542 1543 1543 1544 1544 1545 1545 1545 1545 1545 1545 1544 1544 1543 1543 1543 1542 1542 1541 1541 1540 1540 1539 1538 1538 1538 1537 1537 1537 1537
1532 1532 1533 1533 1534 1535 1536 1536 1537 1538 1539 1540 1540 1541 1542 1542 1543 1543 1544 1544 1545 1544 1544 1544 1544 1543 1543 1543 1542 1542 1542 1541 1541 1540 1539 1539 1538 1538 1537 1537 1537 1537 1536
1530 1531 1531 1532 1532 1533 1534 1535 1535 1536 1537 1538 1539 1540 1541 1541 1542 1542 1542 1543 1543 1543 1543 1543 1542 1542 1542 1542 1541 1541 1541 1540 1540 1539 1539 1538 1538 1537 1537 1537 1536 1536 1536
1528 1528 1529 1529 1530 1531 1532 1533 1533 1534 1535 1536 1537 1538 1539 1540 1540 1541 1541 1541 1541 1542 1542 1542 1541 1541 1541 1541 1540 1540 1540 1539 1539 1538 1538 1537 1537 1536 1536 1536 1535 1535 1535
1526 1526 1527 1528 1528 1529 1530 1530 1531 1532 1533 1534 1535 1536 1536 1537 1538 1539 1539 1540 1539 1540 1540 1540 1540 1540 1540 1539 1539 1539 1539 1538 1538 1537 1537 1536 1535 1535 1535 1534 1534 1534 1534
1523 1524 1525 1525 1526 1527 1527 1528 1529 1529 1531 1532 1532 1533 1534 1535 1536 1537 1537 1538 1539 1538 1538 1538 1538 1538 1538 1538 1538 1538 1537 1537 1537 1536 1535 1535 1534 1534 1533 1533 1533 1533 1533
1521 1522 1522 1523 1524 1524 1525 1526 1526 1527 1528 1529 1530 1531 1531 1532 1533 1534 1535 1536 1536 1536 1536 1536 1536 1536 1536 1536 1536 1536 1536 1535 1535 1535 1534 1534 1533 1532 1532 1532 1532 1532 1531
1518 1519 1520 1521 1521 1522 1522 1523 1524 1525 1525 1526 1527 1528 1529 1530 1531 1531 1532 1533 1533 1534 1533 1534 1534 1534 1534 1534 1534 1534 1534 1534 1533 1533 1533 1532 1531 1531 1531 1530 1530 1530 1530
1515 1516 1517 1518 1518 1519 1520 1520 1521 1522 1523 1524 1524 1525 1526 1527 1528 1528 1529 1530 1531 1531 1531 1531 1531 1532 1532 1532 1532 1532 1532 1532 1531 1531 1531 1531 1530 1530 1529 1529 1529 1529 1529
1512 1513 1514 1515 1515 1516 1517 1518 1519 1519 1520 1521 1522 1522 1523 1524 1524 1525 1526 1527 1528 1528 1529 1529 1528 1529 1530 1530 1530 1530 1530 1529 1529 1529 1529 1529 1528 1528 1527 1527 1527 1527 1527
1509 1510 1511 1512 1513 1513 1514 1515 1516 1516 1517 1518 1518 1519 1520 1521 1521 1522 1523 1524 1524 1525 1525 1526 1526 1526 1527 1527 1527 1527 1527 1527 1527 1527 1526 1526 1526 1526 1525 1525 1525 1525 1525
1506 1507 1508 1508 1509 1510 1511 1512 1513 1513 1514 1514 1515 1516 1517 1518 1518 1519 1520 1520 1521 1521 1522 1522 1522 1523 1523 1524 1524 1524 1524 1524 1524 1524 1524 1524 1524 1523 1523 1523 1523 1523 1523
1503 1504 1505 1506 1506 1507 1508 1509 1510 1510 1511 1511 1512 1512 1513 1514 1515 1515 1516 1517 1517 1518 1518 1518 1518 1519 1519 1520 1521 1521 1521 1521 1521 1522 1521 1521 1521 1521 1521 1521 1521 1521 1520
1500 1501 1502 1503 1503 1504 1505 1506 1506 1507 1507 1508 1509 1509 1510 1511 1511 1512 1512 1513 1514 1514 1515 1515 1515 1515 1515 1516 1517 1517 1517 1517 1517 1518 1518 1517 1518 1517 1518 1518 1518 1518 1518
1497 1498 1499 1500 1501 1501 1502 1503 1503 1504 1504 1505 1505 1506 1506 1507 1507 1508 1508 1509 1509 1510 1511 1511 1511 1511 1512 1513 1513 1514 1514 1514 1514 1514 1515 1514 1514 1514 1515 1515 1515 1516 1516
1494 1495 1496 1497 1498 1499 1499 1500 1500 1500 1501 1501 1502 1502 1503 1503 1503 1504 1504 1504 1505 1505 1506 1507 1507 1507 1508 1509 1509 1510 1510 1509 1509 1510 1511 1511 1511 1511 1511 1511 1512 1512 1513
1492 1493 1493 1494 1495 1496 1496 1497 1497 1497 1498 1498 1498 1498 1499 1499 1500 1500 1500 1500 1500 1501 1502 1502 1502 1503 1504 1504 1505 1505 1505 1506 1505 1505 1506 1507 1507 1508 1507 1507 1508 1509 1509